• In Czech Republic
  • List of Countries
  • For 7 days
  • Water Temperature
  • Satellite Maps
  • Weather Map
  • Weather Widgets
  • user-avatar
    Login

    Hourly Weather Nevşehir

    Today, 25 September, Tuesday

    Time Temperature Precipitation Wind Pressure Humidity
    00:00 +20°C° 0 mm 1 mps 659 mmHg 27%
    01:00 +19°C° 0 mm 1 mps 658 mmHg 27%
    02:00 +19°C° 0 mm 1 mps 658 mmHg 29%
    03:00 +18°C° 0 mm 1 mps 658 mmHg 29%
    04:00 +18°C° 0 mm 1 mps 658 mmHg 30%
    05:00 +16°C° 0 mm 1 mps 657 mmHg 30%
    06:00 +20°C° 0 mm 1 mps 658 mmHg 27%
    07:00 +22°C° 0 mm 1 mps 659 mmHg 23%
    08:00 +25°C° 0 mm 1 mps 659 mmHg 20%
    09:00 +26°C° 0 mm 1 mps 660 mmHg 19%
    10:00 +27°C° 0 mm 1 mps 660 mmHg 17%
    11:00 +28°C° 0 mm 1 mps 660 mmHg 16%
    12:00 +29°C° 0 mm 2 mps 660 mmHg 16%
    13:00 +30°C° 0 mm 2 mps 659 mmHg 15%
    14:00 +30°C° 0 mm 3 mps 659 mmHg 15%
    15:00 +29°C° 0 mm 3 mps 659 mmHg 17%
    16:00 +28°C° 0 mm 3 mps 659 mmHg 18%
    17:00 +27°C° 0 mm 3 mps 659 mmHg 19%
    18:00 +26°C° 0 mm 4 mps 659 mmHg 26%
    19:00 +23°C° 0 mm 4 mps 659 mmHg 32%
    20:00 +21°C° 0 mm 4 mps 659 mmHg 38%
    21:00 +19°C° 0 mm 4 mps 659 mmHg 48%
    22:00 +18°C° 0 mm 4 mps 659 mmHg 57%
    23:00 +17°C° 0 mm 4 mps 659 mmHg 67%

    Tomorrow, 26 September, Wednesday

    Time Temperature Precipitation Wind Pressure Humidity
    00:00 +15°C° 0 mm 4 mps 659 mmHg 71%
    01:00 +14°C° 0 mm 4 mps 659 mmHg 75%
    02:00 +14°C° 0 mm 3 mps 658 mmHg 79%
    03:00 +13°C° 0 mm 3 mps 658 mmHg 81%
    04:00 +13°C° 0 mm 3 mps 658 mmHg 82%
    05:00 +12°C° 0 mm 3 mps 658 mmHg 84%
    06:00 +13°C° 0 mm 4 mps 659 mmHg 80%
    07:00 +14°C° 0 mm 4 mps 659 mmHg 75%
    08:00 +14°C° 0 mm 4 mps 659 mmHg 71%
    09:00 +16°C° 0 mm 5 mps 660 mmHg 64%
    10:00 +17°C° 0 mm 5 mps 660 mmHg 57%
    11:00 +20°C° 0 mm 5 mps 660 mmHg 50%
    12:00 +20°C° 0 mm 6 mps 660 mmHg 48%
    13:00 +20°C° 0 mm 6 mps 660 mmHg 45%
    14:00 +21°C° 0 mm 6 mps 660 mmHg 43%
    15:00 +20°C° 0 mm 7 mps 659 mmHg 47%
    16:00 +17°C° 0 mm 8 mps 659 mmHg 50%
    17:00 +16°C° 0 mm 8 mps 659 mmHg 54%
    18:00 +15°C° 0 mm 7 mps 659 mmHg 59%
    19:00 +12°C° 0 mm 7 mps 659 mmHg 65%
    20:00 +11°C° 0 mm 6 mps 659 mmHg 70%
    21:00 +11°C° 0 mm 6 mps 659 mmHg 72%
    22:00 +10°C° 0 mm 5 mps 659 mmHg 73%
    23:00 +10°C° 0 mm 5 mps 659 mmHg 75%

    Day after tomorrow, 27 September, Thursday

    Time Temperature Precipitation Wind Pressure Humidity
    00:00 +9°C° 0 mm 5 mps 659 mmHg 77%
    01:00 +10°C° 0 mm 4 mps 659 mmHg 78%
    02:00 +10°C° 0 mm 4 mps 659 mmHg 80%
    03:00 +10°C° 0 mm 4 mps 659 mmHg 81%
    04:00 +8°C° 0 mm 4 mps 659 mmHg 82%
    05:00 +9°C° 0 mm 3 mps 659 mmHg 83%
    06:00 +10°C° 0 mm 4 mps 659 mmHg 78%
    07:00 +11°C° 0 mm 4 mps 660 mmHg 73%
    08:00 +12°C° 0 mm 5 mps 660 mmHg 68%
    09:00 +14°C° 0 mm 4 mps 661 mmHg 61%
    10:00 +17°C° 0 mm 4 mps 661 mmHg 53%
    11:00 +19°C° 0 mm 3 mps 661 mmHg 46%
    12:00 +20°C° 0 mm 3 mps 661 mmHg 42%
    13:00 +21°C° 0 mm 3 mps 661 mmHg 38%
    14:00 +22°C° 0 mm 3 mps 661 mmHg 35%
    15:00 +22°C° 0 mm 4 mps 661 mmHg 37%
    16:00 +21°C° 0 mm 4 mps 661 mmHg 39%
    17:00 +20°C° 0 mm 5 mps 661 mmHg 42%
    18:00 +19°C° 0 mm 4 mps 661 mmHg 49%
    19:00 +17°C° 0 mm 4 mps 660 mmHg 56%
    20:00 +14°C° 0 mm 3 mps 660 mmHg 63%
    21:00 +13°C° 0 mm 3 mps 660 mmHg 67%
    22:00 +14°C° 0 mm 2 mps 660 mmHg 70%
    23:00 +13°C° 0 mm 2 mps 660 mmHg 74%

    28 September, Friday

    Time Temperature Precipitation Wind Pressure Humidity
    00:00 +13°C° 0 mm 2 mps 660 mmHg 76%
    01:00 +12°C° 0 mm 2 mps 660 mmHg 79%
    02:00 +12°C° 0 mm 2 mps 660 mmHg 81%
    03:00 +10°C° 0 mm 2 mps 660 mmHg 83%
    04:00 +10°C° 0 mm 2 mps 659 mmHg 85%
    05:00 +10°C° 0 mm 1 mps 659 mmHg 87%
    06:00 +12°C° 0 mm 1 mps 660 mmHg 79%
    07:00 +13°C° 0 mm 1 mps 660 mmHg 72%
    08:00 +15°C° 0 mm 1 mps 661 mmHg 64%
    09:00 +18°C° 0 mm 1 mps 661 mmHg 55%
    10:00 +21°C° 0 mm 1 mps 661 mmHg 45%
    11:00 +23°C° 0 mm 1 mps 661 mmHg 36%
    12:00 +24°C° 0 mm 1 mps 661 mmHg 32%
    13:00 +25°C° 0 mm 1 mps 661 mmHg 28%
    14:00 +27°C° 0 mm 1 mps 661 mmHg 24%
    15:00 +26°C° 0 mm 2 mps 660 mmHg 25%
    16:00 +25°C° 0 mm 2 mps 660 mmHg 27%
    17:00 +25°C° 0 mm 2 mps 660 mmHg 28%
    18:00 +23°C° 0 mm 2 mps 659 mmHg 32%
    19:00 +21°C° 0 mm 1 mps 659 mmHg 37%
    20:00 +19°C° 0 mm 1 mps 659 mmHg 41%
    21:00 +19°C° 0 mm 1 mps 659 mmHg 42%
    22:00 +18°C° 0 mm 1 mps 659 mmHg 44%
    23:00 +18°C° 0 mm 1 mps 658 mmHg 46%

    29 September, Saturday

    Time Temperature Precipitation Wind Pressure Humidity
    00:00 +16°C° 0 mm 1 mps 658 mmHg 47%
    01:00 +16°C° 0 mm 1 mps 658 mmHg 48%
    02:00 +16°C° 0 mm 1 mps 658 mmHg 49%
    03:00 +15°C° 0 mm 1 mps 658 mmHg 49%
    04:00 +15°C° 0 mm 1 mps 658 mmHg 49%
    05:00 +15°C° 0 mm 1 mps 658 mmHg 50%
    06:00 +18°C° 0 mm 1 mps 658 mmHg 43%
    07:00 +20°C° 0 mm 1 mps 659 mmHg 37%
    08:00 +21°C° 0 mm 2 mps 660 mmHg 30%
    09:00 +24°C° 0 mm 2 mps 660 mmHg 26%
    10:00 +26°C° 0 mm 3 mps 660 mmHg 23%
    11:00 +27°C° 0 mm 4 mps 660 mmHg 19%
    12:00 +28°C° 0 mm 4 mps 660 mmHg 19%
    13:00 +28°C° 0 mm 5 mps 660 mmHg 20%
    14:00 +29°C° 0 mm 5 mps 659 mmHg 20%
    15:00 +28°C° 0 mm 4 mps 659 mmHg 21%
    16:00 +27°C° 0 mm 4 mps 659 mmHg 23%
    17:00 +26°C° 0 mm 3 mps 659 mmHg 25%
    18:00 +25°C° 0 mm 3 mps 659 mmHg 28%
    19:00 +24°C° 0 mm 3 mps 659 mmHg 30%
    20:00 +22°C° 0 mm 3 mps 659 mmHg 33%
    21:00 +21°C° 0 mm 3 mps 659 mmHg 36%
    22:00 +20°C° 0 mm 3 mps 659 mmHg 40%
    23:00 +19°C° 0 mm 3 mps 659 mmHg 44%

    30 September, Sunday

    Time Temperature Precipitation Wind Pressure Humidity
    00:00 +19°C° 0 mm 3 mps 658 mmHg 47%
    01:00 +18°C° 0 mm 2 mps 658 mmHg 50%
    02:00 +17°C° 0 mm 2 mps 658 mmHg 53%
    03:00 +17°C° 0 mm 2 mps 658 mmHg 56%
    04:00 +16°C° 0 mm 2 mps 658 mmHg 59%
    05:00 +16°C° 0 mm 2 mps 658 mmHg 62%
    06:00 +18°C° 0 mm 2 mps 658 mmHg 57%
    07:00 +19°C° 0 mm 2 mps 659 mmHg 52%
    08:00 +21°C° 0 mm 3 mps 660 mmHg 47%
    09:00 +24°C° 0 mm 3 mps 660 mmHg 39%
    10:00 +25°C° 0 mm 4 mps 660 mmHg 31%
    11:00 +27°C° 0 mm 5 mps 660 mmHg 23%
    12:00 +27°C° 0 mm 5 mps 660 mmHg 21%
    13:00 +28°C° 0 mm 5 mps 660 mmHg 19%
    14:00 +29°C° 0 mm 6 mps 659 mmHg 17%
    15:00 +28°C° 0 mm 5 mps 659 mmHg 19%
    16:00 +27°C° 0 mm 4 mps 659 mmHg 22%
    17:00 +26°C° 0 mm 4 mps 658 mmHg 25%
    18:00 +24°C° 0 mm 3 mps 658 mmHg 30%
    19:00 +21°C° 0 mm 2 mps 658 mmHg 35%
    20:00 +20°C° 0 mm 2 mps 658 mmHg 41%
    21:00 +19°C° 0 mm 2 mps 658 mmHg 45%
    22:00 +19°C° 0 mm 2 mps 658 mmHg 48%
    23:00 +18°C° 0 mm 2 mps 658 mmHg 52%
    Show more